Greenville, AL

9:12 AM CDT on September 20, 2017 (GMT -0500)
Greenville Municipal

Weather History for KPRN - August, 2013

Change the Weather History Date:

Thursday, August 22, 2013

  Actual Average Record
Temperature  
Mean Temperature 80 °F -  
Max Temperature 91 °F 91 °F 100 °F (1951)
Min Temperature 69 °F 69 °F 57 °F (1956)
Cooling Degree Days 15    
Growing Degree Days 30 (Base 50)    
Moisture  
Dew Point 71 °F    
Average Humidity 80    
Maximum Humidity 94    
Minimum Humidity 52    
Precipitation  
Precipitation 0.16 in - - ()
Sea Level Pressure  
Sea Level Pressure 30.07 in    
Wind  
Wind Speed 3 mph (East)    
Max Wind Speed 10 mph    
Max Gust Speed 21 mph    
Visibility 9 miles    
Events Rain , Thunderstorm    
Averages and records for this station are not official NWS values.
T = Trace of Precipitation, MM = Missing Value Source: NWS Daily Summary

Daily Weather History Graph

Daily Weather History Graph

Search for Another Location

Airport or City:

Trip Planner

Search our weather history database for the weather conditions in past years. The results will help you decide how hot, cold, wet, or windy it might be!

Date:

Astronomy

Aug. 22, 2013 Rise Set
Actual Time 6:15 AM CDT 7:22 PM CDT
Civil Twilight 5:50 AM CDT 7:47 PM CDT
Nautical Twilight 5:20 AM CDT 8:17 PM CDT
Astronomical Twilight 4:49 AM CDT 8:48 PM CDT
Moon 8:18 PM CDT (8/22) 7:53 AM CDT (8/22)
Length of Visible Light 13h 56m
Length of Day
13h 06m
Waning Gibbous, 96% of the Moon is Illuminated
Aug 22
Waning Gibbous
Aug 28
Last Quarter
Sep 5
New
Sep 12
First Quarter
Sep 19
Full

Hourly Weather History & Observations

Time (CDT) Temp. Heat Index Dew Point Humidity Pressure Visibility Wind Dir Wind Speed Gust Speed Precip Events Conditions
12:56 AM 71.1 °F - 68.0 °F 90% 30.11 in 10.0 mi Calm Calm - N/A   Clear
1:56 AM 70.0 °F - 68.0 °F 93% 30.12 in 10.0 mi East 4.6 mph - N/A   Scattered Clouds
2:56 AM 70.0 °F - 68.0 °F 93% 30.11 in 10.0 mi Calm Calm - N/A   Clear
3:56 AM 70.0 °F - 68.0 °F 93% 30.10 in 10.0 mi NNE 3.5 mph - N/A   Clear
4:56 AM 70.0 °F - 68.0 °F 93% 30.10 in 10.0 mi Calm Calm - N/A   Clear
5:56 AM 69.1 °F - 66.9 °F 93% 30.11 in 10.0 mi Calm Calm - N/A   Clear
6:56 AM 71.1 °F - 68.0 °F 90% 30.12 in 10.0 mi Calm Calm - N/A   Clear
7:56 AM 75.9 °F - 70.0 °F 82% 30.12 in 10.0 mi ESE 4.6 mph - N/A   Clear
8:56 AM 79.0 °F - 72.0 °F 79% 30.14 in 10.0 mi Calm Calm - N/A   Clear
9:56 AM 84.0 °F 90.2 °F 73.0 °F 69% 30.13 in 10.0 mi Variable 3.5 mph - N/A   Clear
10:56 AM 84.9 °F 90.7 °F 72.0 °F 65% 30.13 in 10.0 mi NE 4.6 mph - N/A   Scattered Clouds
11:56 AM 87.1 °F 92.8 °F 71.1 °F 59% 30.11 in 10.0 mi East 5.8 mph - N/A   Partly Cloudy
12:56 PM 86.0 °F 91.5 °F 71.1 °F 61% 30.08 in 10.0 mi East 4.6 mph - N/A   Clear
1:56 PM 91.0 °F 97.6 °F 71.1 °F 52% 30.05 in 10.0 mi NNE 4.6 mph - N/A   Partly Cloudy
2:56 PM 89.1 °F 93.7 °F 69.1 °F 52% 30.04 in 10.0 mi East 6.9 mph - N/A   Partly Cloudy
3:56 PM 87.1 °F 92.8 °F 71.1 °F 59% 30.02 in 10.0 mi NE 10.4 mph - N/A Thunderstorm Thunderstorm
4:12 PM 86.0 °F 93.4 °F 73.4 °F 66% 30.04 in 10.0 mi ENE 9.2 mph - N/A   Scattered Clouds
4:36 PM 84.2 °F 89.6 °F 71.6 °F 66% 30.03 in 10.0 mi ENE 8.1 mph - N/A Thunderstorm Thunderstorm
4:56 PM 81.0 °F 84.9 °F 71.1 °F 72% 30.04 in 10.0 mi East 10.4 mph 20.7 mph N/A Thunderstorm Thunderstorm
5:22 PM 75.2 °F - 73.4 °F 94% 30.03 in 1.8 mi NNE 4.6 mph - 0.12 in Rain , Thunderstorm Heavy Thunderstorms and Rain
5:29 PM 75.2 °F - 73.4 °F 94% 30.02 in 2.0 mi Calm Calm - 0.16 in Rain Heavy Rain
5:37 PM 77.0 °F - 73.4 °F 89% 30.02 in 8.0 mi Variable 3.5 mph - 0.16 in Rain Light Rain
5:56 PM 78.1 °F - 73.9 °F 87% 30.00 in 10.0 mi Calm Calm - 0.16 in Rain Light Rain
6:56 PM 79.0 °F - 73.0 °F 82% 30.01 in 10.0 mi East 3.5 mph - 0.00 in   Clear
7:56 PM 75.9 °F - 73.0 °F 91% 30.04 in 10.0 mi Calm Calm - N/A   Clear
8:56 PM 75.0 °F - 72.0 °F 90% 30.04 in 10.0 mi SE 3.5 mph - N/A   Clear
9:56 PM 75.0 °F - 72.0 °F 90% 30.04 in 10.0 mi SE 3.5 mph - N/A   Clear
10:56 PM 73.9 °F - 71.1 °F 91% 30.04 in 10.0 mi SE 4.6 mph - N/A   Clear
11:56 PM 73.0 °F - 71.1 °F 93% 30.05 in 10.0 mi Calm Calm - N/A   Clear